Theta_e
348 348 341 332 335 338 337 339 340 345 345 346 346 345 343 341 340 337 334 329 330 330 332 336 336 336 335 334 332 334 338 340 339 340 341 342 342 341 341 340 340 339 338 338 337 337 336 336 335 335 335 334 334 334 333 335 335 336 336 337 338 338 337 337 336 337 339 338 339 340 340 340 340 339 339 339 339 338 339 339 339 340 340 340 339
348 347 343 334 334 337 337 340 340 345 346 347 347 346 344 341 340 336 333 330 330 330 333 337 336 336 337 336 333 337 340 341 340 341 342 341 341 340 340 339 339 338 337 337 337 337 335 336 336 336 335 335 334 334 334 335 335 335 335 336 337 338 338 337 337 338 338 337 337 338 338 339 339 339 339 339 339 339 338 338 338 339 339 339 339
346 346 345 337 334 336 337 340 341 345 346 348 347 346 344 341 340 335 333 330 330 332 336 338 338 338 338 337 333 337 341 341 341 341 342 341 341 340 339 339 338 337 337 337 337 337 336 337 336 335 335 335 335 334 335 335 335 334 333 334 336 337 336 336 336 336 336 336 336 337 338 337 338 339 339 338 338 339 338 339 338 338 338 338 338
346 345 345 338 334 336 337 341 343 346 347 348 347 347 344 341 340 336 333 330 332 336 339 341 341 341 339 336 334 337 340 340 341 341 341 340 340 339 339 338 337 338 338 338 338 338 337 337 336 336 334 334 334 334 334 334 334 333 332 333 334 335 334 334 334 334 334 335 336 337 337 337 337 338 338 338 338 338 337 337 337 337 336 337 337
345 344 345 341 339 338 338 342 344 346 348 348 347 346 344 342 339 335 333 332 335 339 342 342 341 341 340 336 334 337 337 337 337 339 340 339 340 339 338 337 338 339 339 338 338 338 338 338 338 337 334 333 332 332 332 333 334 332 331 332 333 332 332 333 334 335 336 335 334 336 336 336 337 337 337 337 337 336 336 336 335 335 335 335 335
345 344 344 343 343 343 339 343 344 346 348 347 347 345 343 341 338 335 334 335 339 341 342 340 340 341 339 335 334 338 338 338 336 339 340 339 340 339 338 338 339 340 339 338 338 338 339 339 339 338 337 334 331 328 329 332 332 330 330 331 332 331 331 332 332 333 335 334 334 334 334 336 337 336 336 335 333 333 334 334 334 334 334 334 334
345 343 344 342 344 344 341 343 344 345 347 347 346 344 343 340 338 335 336 339 341 341 340 339 340 340 339 336 335 338 339 339 338 338 340 340 339 338 338 340 340 340 339 339 339 339 339 339 339 340 339 337 333 328 325 327 329 329 329 330 331 330 330 331 331 332 333 333 333 333 331 334 336 334 334 334 333 332 332 332 332 332 333 333 333
344 342 342 342 343 343 342 343 344 345 346 345 344 343 342 340 337 336 339 341 341 340 339 339 339 339 338 336 335 338 339 340 339 338 339 339 338 338 340 340 340 339 339 339 338 337 337 338 338 339 338 337 335 331 324 321 323 326 327 329 331 329 328 330 332 332 332 331 331 331 331 332 333 333 333 333 333 332 332 331 330 330 330 331 331
343 342 342 343 344 341 342 343 344 344 344 344 343 342 341 339 337 338 339 340 340 339 338 338 337 338 338 337 338 339 340 341 340 337 338 338 338 340 340 340 340 340 340 340 339 338 339 339 338 338 338 336 335 333 328 322 320 322 324 325 328 328 328 330 332 332 333 332 332 333 332 332 331 332 331 332 332 331 332 330 330 330 329 330 330
343 343 342 344 343 340 342 343 343 344 344 343 342 342 340 339 338 339 339 339 339 338 338 337 336 338 339 341 341 340 341 341 339 336 337 339 339 340 340 340 341 341 341 341 341 340 341 340 339 338 337 337 335 334 331 326 321 320 321 322 326 328 329 331 332 331 331 332 333 333 331 331 331 330 330 330 331 329 329 329 329 330 329 328 329
343 343 341 344 342 340 341 341 341 343 343 343 342 341 341 340 340 340 339 339 340 340 337 335 335 338 340 341 341 340 340 340 340 338 337 339 340 340 341 341 341 342 341 341 341 340 341 340 339 338 338 337 335 335 333 330 323 319 324 326 328 330 332 333 334 333 331 331 331 331 330 332 332 331 331 331 330 329 329 330 329 328 328 328 329
344 342 342 343 339 338 340 339 340 342 343 342 342 342 341 341 341 340 339 341 341 339 335 335 337 336 337 338 338 338 338 340 341 340 337 339 340 340 341 342 341 342 341 341 340 339 340 340 339 338 337 336 335 334 333 332 324 319 327 331 332 333 333 334 335 334 333 333 332 332 332 332 332 332 331 331 330 329 329 329 327 328 329 328 328
344 342 343 342 338 337 337 337 338 340 341 342 342 342 341 342 341 340 340 340 338 336 337 339 340 337 337 339 338 336 338 341 341 340 339 340 340 340 341 341 340 341 341 340 340 340 340 339 338 336 335 334 334 334 333 332 324 319 327 332 332 332 332 334 335 333 333 333 333 333 332 331 330 330 330 329 329 328 328 328 328 328 328 328 327
343 342 342 342 338 334 333 334 335 335 338 339 341 341 341 341 340 339 337 336 336 338 340 342 343 341 340 341 338 335 337 340 340 341 341 340 340 340 341 341 340 341 341 340 340 339 339 338 335 334 335 334 334 334 332 329 324 319 326 331 330 331 332 334 333 333 333 333 333 331 330 329 329 329 329 329 329 328 328 328 328 328 328 327 327
343 342 342 341 339 334 331 331 330 330 333 336 338 339 339 338 337 337 335 336 338 339 341 341 342 342 341 341 339 335 334 337 339 340 340 340 340 340 340 341 341 340 340 339 339 338 338 336 333 333 334 335 334 333 330 327 324 321 326 330 330 332 334 334 332 333 333 332 332 331 330 329 329 329 329 329 329 328 328 328 328 328 327 327 327
343 342 342 341 340 338 334 331 327 326 327 331 335 336 336 336 336 335 336 338 339 339 340 341 341 341 341 340 338 336 334 335 336 339 339 339 339 340 340 340 339 339 339 339 339 338 336 334 333 333 333 334 333 330 328 327 325 323 327 331 331 332 333 334 333 332 331 330 331 331 330 329 329 329 328 328 328 328 327 327 327 327 326 326 326
343 341 342 341 341 340 339 336 331 328 328 329 331 333 335 335 335 336 338 338 338 339 339 340 339 339 339 339 337 337 337 335 334 336 338 338 339 339 339 338 337 337 338 338 338 337 334 333 333 333 333 333 332 329 327 327 326 324 327 330 331 332 332 334 334 333 333 333 332 331 330 328 329 328 328 327 327 327 327 327 327 326 327 327 327
342 341 342 341 341 340 341 340 336 334 333 331 331 332 333 333 335 336 337 338 338 338 339 339 338 338 338 338 338 338 339 337 335 333 333 336 337 337 338 336 335 336 338 338 337 335 333 332 333 333 333 332 331 329 328 327 326 325 329 331 332 332 332 332 332 334 334 333 332 330 329 328 328 329 328 328 328 328 327 327 327 327 327 327 327
342 342 342 341 341 340 341 340 340 339 336 335 334 332 332 333 335 336 336 337 337 338 339 338 338 338 338 339 338 337 338 338 336 333 332 333 334 334 335 334 334 336 337 337 336 334 333 332 333 334 333 332 332 330 328 327 326 328 332 333 333 333 333 333 332 333 333 332 330 329 329 328 328 328 328 328 328 328 328 327 326 327 327 327 326
342 343 342 341 342 341 341 341 342 341 339 339 336 333 333 335 335 336 336 336 337 337 337 338 338 338 338 338 335 335 337 338 337 335 335 334 333 333 331 331 333 336 337 335 335 334 332 332 333 334 333 332 332 331 330 328 327 330 333 333 333 334 334 333 331 332 332 330 329 328 327 327 327 327 328 328 328 328 328 327 327 326 326 326 326
343 343 343 342 342 341 342 341 342 341 341 341 338 336 333 334 336 336 337 337 337 336 336 337 338 337 337 336 334 336 338 338 337 336 336 335 335 333 332 332 332 334 335 334 334 332 331 332 333 333 333 333 332 331 330 328 329 333 333 333 334 334 333 332 331 331 329 327 327 327 325 326 327 327 328 328 328 327 327 326 325 326 326 326 325
344 343 343 343 342 342 341 341 342 341 342 341 340 338 333 333 336 335 335 336 335 334 335 336 336 336 335 335 335 338 340 339 338 337 336 335 335 334 334 334 333 333 332 333 332 331 331 332 332 333 333 333 332 333 331 329 330 333 333 334 335 334 332 332 332 331 330 328 328 329 328 328 328 328 328 328 327 325 325 326 325 324 324 323 323
344 343 343 343 342 341 341 341 342 342 343 342 340 339 335 336 338 336 335 335 335 335 336 336 336 336 334 336 337 338 339 338 337 338 337 335 335 333 333 334 333 332 331 331 330 329 330 331 332 333 333 333 335 336 334 332 332 334 334 335 335 333 332 331 331 331 330 329 330 331 331 330 328 328 328 328 326 323 323 324 322 320 322 323 323
345 344 343 343 342 342 342 342 342 342 343 341 341 340 337 337 338 337 336 336 337 337 338 337 336 335 335 337 338 337 337 338 337 338 337 336 335 332 332 333 333 331 331 331 330 328 329 330 331 332 333 334 337 336 336 335 334 335 336 335 334 333 332 332 331 331 332 331 331 332 333 331 329 328 327 326 326 325 322 320 318 318 321 323 324
345 345 344 343 344 344 343 344 342 342 344 342 341 340 337 338 338 337 337 338 338 338 339 338 337 337 336 337 338 337 337 338 337 337 337 335 334 332 332 334 334 332 332 332 331 328 329 330 331 332 334 335 336 336 335 335 335 335 336 335 334 333 333 332 333 332 332 333 332 333 332 331 329 327 326 325 325 325 322 320 319 317 317 321 323
345 344 344 344 345 344 344 344 342 342 343 342 341 339 338 339 338 338 338 339 339 340 340 338 337 339 338 337 338 337 336 337 335 335 337 335 334 334 334 334 333 333 332 333 332 330 330 331 331 333 334 334 335 336 335 333 333 334 334 334 333 333 333 333 334 332 333 333 333 333 331 331 331 327 326 325 324 325 323 322 323 320 318 321 323
345 344 344 345 345 345 344 343 342 341 342 342 341 340 340 340 338 339 340 341 341 341 340 337 337 339 339 337 337 337 336 336 335 335 335 334 334 334 334 333 332 332 332 333 332 331 331 332 331 332 333 333 334 335 334 333 333 333 332 333 333 334 333 333 334 333 332 332 332 332 331 332 332 329 328 327 326 325 324 324 324 323 323 324 324
345 343 344 344 343 344 343 343 343 341 341 343 343 341 340 339 338 339 338 340 340 339 339 338 338 339 339 337 336 336 335 335 335 335 335 333 334 335 334 333 332 332 332 332 332 331 331 331 331 332 332 332 334 334 333 333 333 332 332 333 333 334 334 334 335 334 332 333 333 332 331 331 331 331 331 330 328 325 325 325 324 324 325 325 326
344 343 345 345 342 343 342 343 343 343 343 343 342 340 339 338 339 339 338 338 337 337 338 338 338 338 339 337 336 335 335 335 335 335 334 334 335 335 334 334 333 332 333 332 331 331 331 332 332 332 331 331 333 334 333 333 332 331 332 332 333 334 334 335 335 334 333 334 333 331 329 330 330 330 331 331 328 326 326 326 325 324 325 326 327
345 345 346 343 341 341 341 343 344 344 344 342 341 340 339 338 339 338 338 338 337 337 338 337 338 338 337 336 335 336 335 335 334 334 334 334 335 334 334 334 333 333 334 333 332 332 332 333 333 331 329 330 332 333 333 333 331 330 331 331 332 334 334 334 334 333 333 334 333 331 329 329 330 330 330 330 327 325 326 326 326 326 327 328 329
346 346 341 336 338 340 339 340 343 343 342 341 341 342 341 339 338 338 339 340 338 338 338 338 338 337 336 336 335 335 335 335 334 334 334 334 333 334 333 333 333 334 334 334 333 332 332 332 331 330 330 331 332 333 333 332 331 331 331 331 332 333 333 333 333 332 333 334 333 332 330 328 329 329 330 329 327 325 326 327 328 328 329 329 330
346 344 337 335 339 339 337 339 341 341 340 341 341 342 342 340 338 338 340 340 338 338 338 337 338 337 337 336 336 336 336 336 335 334 333 333 333 334 334 334 334 334 334 334 334 333 333 332 331 331 331 331 332 332 332 332 331 331 331 332 332 332 333 333 333 331 332 333 333 332 330 329 327 328 329 329 328 328 329 330 330 330 330 331 331
346 343 337 339 339 337 339 340 341 340 338 340 342 342 341 340 339 338 338 339 338 339 338 336 336 337 337 336 336 337 336 336 336 334 332 333 333 334 335 335 335 335 334 334 334 334 334 334 334 334 333 332 333 332 332 332 331 331 332 332 332 332 332 332 332 332 332 332 333 332 331 330 328 327 328 329 329 330 330 330 331 331 330 330 330
345 343 338 340 339 339 342 342 342 340 338 339 340 340 340 339 338 337 337 338 338 338 337 337 335 335 336 335 335 335 334 333 333 332 333 334 335 336 336 335 335 335 335 335 334 335 334 335 335 335 334 332 333 333 331 332 331 331 332 332 332 333 332 332 332 331 332 331 331 331 331 331 331 329 329 329 329 330 329 329 330 330 330 330 330
344 343 337 339 340 340 341 342 342 339 338 338 338 339 339 338 337 337 337 337 337 336 336 336 335 335 335 335 334 332 332 332 331 332 335 335 336 336 335 335 334 334 335 335 334 334 334 334 334 333 334 332 333 332 331 332 332 332 332 333 333 333 332 332 331 331 331 331 330 331 330 331 331 331 330 329 329 329 329 329 329 329 329 330 329
344 343 336 337 341 340 341 342 342 340 339 339 338 338 339 338 337 337 337 337 336 335 335 335 335 335 334 335 335 334 335 336 334 333 335 335 335 334 334 334 333 334 334 335 335 334 334 334 334 334 334 333 332 331 331 334 334 333 333 334 334 333 332 332 332 331 331 331 330 330 330 330 330 331 330 330 330 329 328 328 328 327 328 328 329
343 343 337 336 340 341 341 341 340 340 340 339 338 338 338 337 336 336 336 337 336 335 335 335 335 334 334 335 336 335 334 336 335 333 333 333 333 334 335 334 333 335 335 336 335 334 335 335 336 334 333 333 332 331 333 334 334 334 334 334 334 334 333 332 332 331 331 331 331 330 330 330 330 330 329 329 329 328 327 327 327 327 326 326 326
343 343 338 335 339 341 341 341 339 340 340 338 338 338 338 336 335 336 336 337 336 334 334 335 335 334 334 334 335 335 334 336 335 333 332 332 333 334 335 334 333 335 336 336 335 333 335 336 335 334 333 332 332 332 333 333 334 334 334 334 333 333 333 332 331 331 331 331 331 329 330 330 329 330 330 329 330 329 328 328 327 326 324 322 321
344 343 338 335 339 340 340 340 339 339 339 338 337 337 338 337 336 336 336 336 335 334 335 336 337 335 333 333 334 334 334 335 334 333 334 333 334 335 335 334 334 335 335 335 335 333 334 336 334 333 333 332 332 334 334 333 332 332 332 332 332 332 331 331 330 331 330 331 331 330 330 330 330 330 330 330 330 329 329 329 329 326 322 320 320
344 344 339 337 340 340 339 339 339 339 338 337 336 337 337 336 336 335 335 336 335 335 334 334 335 334 333 334 333 333 335 336 334 334 335 334 333 333 334 335 335 334 334 335 335 333 335 337 335 333 333 332 332 334 334 333 332 331 331 331 331 331 330 330 330 330 330 330 330 329 329 330 330 330 330 330 330 330 330 330 329 327 324 322 323
343 344 341 339 340 340 338 338 339 338 338 337 336 336 337 336 335 335 335 335 335 334 332 332 333 333 333 334 333 333 334 336 335 335 334 332 331 330 331 333 334 334 335 336 334 334 336 336 335 333 332 333 333 335 334 331 331 331 331 331 332 331 330 330 330 330 329 329 330 330 330 330 330 330 330 330 330 330 330 329 328 328 327 326 327
343 343 342 340 340 340 339 338 338 338 337 337 336 336 337 336 335 334 334 335 335 334 333 332 333 333 333 332 333 333 333 334 335 334 332 331 330 330 330 333 333 334 335 336 336 336 336 335 334 332 332 334 334 335 334 331 331 332 331 332 332 331 330 330 330 330 330 329 330 330 331 331 331 330 329 329 329 329 329 328 328 328 328 328 328
344 343 342 341 341 340 339 339 338 337 337 336 336 336 336 335 335 334 334 335 334 334 333 332 333 333 332 332 333 333 333 334 333 332 331 330 330 330 331 332 333 334 335 336 335 336 336 335 334 332 332 333 333 333 333 331 331 332 331 331 331 330 330 330 330 330 329 330 330 330 331 331 331 330 329 328 326 325 326 327 327 328 329 329 328
343 343 342 341 340 339 339 339 339 338 337 336 336 337 336 334 334 333 333 333 333 333 332 332 332 333 332 332 332 333 334 335 333 333 332 330 330 331 332 332 333 335 335 335 335 334 334 335 334 333 331 332 334 333 332 330 330 332 331 330 330 329 329 330 330 329 329 330 330 330 330 330 329 329 328 325 324 324 324 326 327 327 328 329 328
343 343 342 341 340 339 339 339 339 337 336 335 335 336 335 334 334 333 333 333 332 332 331 331 332 332 332 331 332 333 334 334 333 333 332 332 332 333 333 333 334 336 334 334 334 333 334 334 334 334 331 331 333 333 332 330 329 331 331 330 330 330 329 329 330 329 328 329 329 329 329 329 328 327 325 322 322 323 324 326 327 326 327 327 327
343 343 342 341 339 339 339 339 338 337 336 335 335 335 334 334 335 334 334 334 333 332 332 331 330 330 331 331 332 333 332 333 333 332 332 332 333 335 335 334 335 336 335 334 334 333 334 334 332 333 332 331 331 333 333 332 330 332 332 330 330 330 329 329 329 329 329 328 328 328 328 328 327 324 322 321 321 323 324 325 326 326 325 325 326
342 342 341 340 339 339 338 338 338 337 336 335 335 335 334 334 335 335 335 334 333 333 332 332 331 331 332 332 333 334 333 334 334 333 333 333 333 334 334 334 334 335 334 335 334 333 334 332 330 332 333 331 331 332 332 331 332 332 331 330 330 330 330 329 329 329 329 329 328 328 328 327 324 321 320 320 322 322 322 323 323 324 323 323 324
342 341 341 340 339 339 338 338 338 336 336 335 335 335 335 335 335 335 334 333 332 332 332 333 333 333 334 334 335 335 335 335 335 335 334 334 334 334 334 334 334 334 334 334 334 333 333 331 330 332 332 331 331 331 331 331 332 332 331 330 330 330 329 329 329 328 329 329 328 327 327 326 323 320 319 320 321 320 320 320 320 321 322 322 323
341 340 340 340 339 339 338 338 337 336 336 336 335 335 335 335 335 335 334 332 330 331 334 335 336 336 337 337 337 337 336 336 335 335 335 334 334 334 334 334 334 334 333 334 333 333 333 332 331 332 332 331 332 332 331 331 331 331 331 330 329 329 329 328 329 329 329 328 327 327 326 324 322 319 319 319 319 319 318 317 317 318 320 321 322
340 340 340 340 339 339 338 338 337 336 336 336 335 335 335 335 335 334 334 331 330 333 335 336 337 337 338 337 336 335 335 334 334 335 335 335 335 334 334 334 334 334 334 334 333 333 334 333 332 333 332 332 333 332 330 330 332 331 330 329 327 328 328 329 330 329 328 328 327 326 325 324 322 319 318 318 317 317 316 315 315 315 316 317 317
339 339 339 339 339 339 338 337 337 336 336 335 335 336 335 335 334 333 332 331 331 333 334 335 336 336 336 335 335 334 334 333 333 333 333 333 335 335 335 334 334 334 334 334 333 333 334 333 333 333 333 332 332 331 330 330 331 330 330 329 327 328 328 328 329 327 327 328 327 324 325 323 321 319 317 317 316 316 315 315 315 314 314 314 313
Wind_Speed
16 19 23 22 19 19 18 19 22 25 27 27 26 25 26 26 26 25 25 25 24 23 23 23 22 19 18 17 17 19 18 16 15 15 15 15 16 16 15 15 14 14 14 14 15 15 15 15 16 15 15 15 15 15 16 16 14 16 16 16 16 17 18 19 19 18 19 20 21 22 24 24 22 23 21 21 21 20 18 17 17 18 19 19 18
18 18 21 21 20 18 18 20 22 25 27 27 26 25 26 26 27 26 26 25 24 23 24 24 21 19 17 16 17 19 18 16 15 16 16 15 16 15 14 14 14 14 15 15 15 16 16 16 16 15 15 15 14 14 15 14 14 15 15 16 16 16 17 18 18 17 17 19 21 23 25 24 24 24 22 22 22 21 19 18 18 19 19 19 18
20 17 19 21 20 19 19 20 22 24 27 27 26 26 26 27 27 27 26 25 24 25 25 23 20 19 17 16 17 19 18 16 16 16 15 15 15 14 14 14 15 15 15 15 15 15 16 16 15 15 14 14 14 13 13 13 14 14 15 16 16 17 18 18 19 18 17 18 19 22 24 23 23 23 22 21 22 21 19 19 19 19 19 19 19
20 19 18 21 21 19 19 21 22 24 26 27 27 27 27 27 27 27 26 24 25 26 24 21 19 18 17 17 18 18 17 16 17 16 15 14 14 14 14 15 15 15 15 15 15 15 15 15 15 15 15 14 13 13 12 13 13 13 15 16 19 20 19 19 18 19 17 16 17 20 21 21 22 21 19 19 20 20 18 18 18 19 18 17 18
21 20 18 20 20 19 20 22 23 25 26 27 27 27 27 27 27 27 26 25 28 26 23 20 19 17 17 18 19 18 16 16 16 16 14 13 14 14 15 16 15 15 15 14 14 14 15 15 14 14 15 15 13 13 12 12 12 13 15 17 21 21 18 16 15 16 14 14 16 16 18 19 20 19 17 17 18 18 19 19 18 18 17 16 16
20 20 19 19 18 18 21 23 23 25 26 27 27 27 27 27 28 27 26 27 28 25 22 21 19 17 18 19 19 17 16 15 15 17 15 14 14 14 15 15 15 15 14 14 14 14 14 13 13 13 13 14 14 13 12 12 11 13 15 16 20 19 15 13 10 10 9 12 12 11 15 16 17 17 16 17 17 15 15 17 17 17 17 15 14
20 20 19 19 18 19 22 23 24 26 26 27 27 27 27 27 28 27 27 28 27 24 23 21 19 17 17 19 19 16 15 15 15 17 17 15 15 14 15 15 14 14 14 14 13 13 13 12 12 12 12 13 13 13 12 11 11 12 13 14 19 18 15 14 12 9 5 7 6 7 13 13 14 16 16 16 16 14 12 13 14 16 17 16 15
20 20 19 19 19 21 24 24 25 26 27 27 27 27 27 27 27 28 28 27 25 23 22 20 19 17 17 18 18 16 15 14 14 17 16 15 15 15 15 14 14 14 14 13 13 13 12 12 11 11 11 12 12 12 12 12 11 11 11 13 16 17 16 17 16 15 12 10 9 10 12 12 12 14 14 14 15 14 12 14 14 14 15 16 15
20 20 19 18 19 23 25 25 26 26 27 27 27 27 26 27 27 27 27 26 24 23 21 20 19 17 17 18 18 16 15 14 14 16 17 16 16 15 15 15 15 15 14 13 13 12 11 10 9 9 9 10 11 11 11 11 11 11 11 11 15 17 17 17 16 15 13 13 14 14 14 14 13 12 13 14 15 13 12 15 15 14 15 16 16
19 19 19 17 21 25 25 25 25 26 26 26 26 27 27 26 26 25 25 23 22 21 19 18 18 17 18 18 18 17 16 16 15 16 17 17 16 15 15 15 15 14 13 12 11 11 10 9 8 8 8 9 10 10 10 10 11 12 14 15 16 17 15 14 14 13 12 11 13 16 17 16 15 14 14 14 15 13 12 14 15 16 16 16 16
19 18 18 18 23 26 26 25 25 26 26 26 26 26 26 26 25 24 23 22 20 19 17 17 18 17 18 19 19 18 18 18 16 16 17 17 16 15 14 15 15 12 12 12 10 10 9 8 8 8 8 8 8 9 9 9 10 14 18 18 17 13 10 9 9 10 12 13 13 14 16 16 15 16 15 15 15 14 15 16 16 16 16 15 16
18 17 17 20 25 27 26 24 25 25 26 25 25 25 25 25 24 23 22 21 19 17 18 18 17 16 18 18 18 19 20 17 15 17 17 17 16 14 14 14 14 12 12 12 10 9 9 9 8 7 7 7 6 8 8 8 9 14 17 16 14 11 9 10 9 9 13 14 15 14 15 15 14 15 15 15 16 15 15 15 16 16 15 15 15
18 18 18 21 23 25 26 24 25 25 25 24 24 24 24 24 23 22 21 19 19 19 20 18 17 17 17 16 17 19 19 16 14 17 18 17 16 15 14 14 13 13 12 11 10 9 9 8 7 7 6 6 5 7 7 7 9 12 15 15 14 13 13 14 10 10 13 13 14 14 14 14 14 14 14 15 15 15 15 15 15 14 15 15 15
19 19 19 20 21 24 25 24 24 24 24 23 23 24 23 23 22 21 20 21 21 20 19 18 17 18 18 17 17 18 18 17 17 18 18 18 16 15 15 14 13 13 12 11 10 8 7 6 6 6 5 6 6 7 8 8 9 12 14 14 11 10 11 12 11 12 13 14 14 14 15 15 14 14 14 15 15 14 15 15 14 14 15 15 15
19 20 19 19 20 22 24 24 23 23 23 23 23 24 23 23 22 21 22 22 21 20 19 18 17 18 18 17 16 17 19 19 18 19 19 18 17 16 15 14 12 11 11 10 9 7 5 5 6 5 5 6 7 9 10 9 10 12 13 10 8 8 9 9 9 11 13 14 14 15 15 14 14 13 14 14 13 14 14 15 14 14 15 15 15
19 20 19 19 20 20 21 22 23 22 22 23 23 23 23 23 22 22 22 22 20 19 18 18 17 17 17 17 16 17 19 20 19 19 19 18 17 16 14 13 11 10 10 9 8 6 6 6 6 5 6 8 9 10 10 11 10 11 10 8 9 10 12 11 9 10 12 13 13 14 14 14 13 13 13 13 13 14 14 14 14 14 14 14 14
19 20 20 20 20 20 20 20 22 22 22 22 22 23 23 23 22 22 22 21 20 19 18 18 17 17 17 17 17 17 18 19 19 18 18 18 17 16 14 12 10 9 9 9 7 7 7 7 6 5 7 9 9 11 11 11 11 10 11 12 13 14 14 13 11 11 12 12 14 14 14 13 12 12 13 13 14 14 14 13 14 14 13 13 13
19 19 20 21 20 20 19 19 21 21 21 21 21 22 23 23 22 21 21 20 19 19 18 17 17 17 17 17 17 16 18 18 17 17 17 18 17 15 14 12 10 9 9 9 8 8 8 7 7 6 7 9 9 10 11 12 13 15 16 17 17 16 16 15 12 11 12 12 13 13 14 13 12 13 13 13 13 13 13 13 13 13 12 12 12
19 19 19 20 20 19 19 19 20 20 21 20 20 22 23 22 21 20 20 19 19 18 17 17 17 17 17 17 17 16 17 17 16 16 17 16 16 15 15 14 12 10 10 9 9 9 8 7 7 7 8 9 9 10 11 12 14 17 18 17 16 14 13 11 11 11 12 12 13 13 13 12 11 12 13 12 13 13 12 12 12 12 11 11 11
19 19 20 20 20 20 19 19 20 20 20 20 20 20 22 22 21 21 20 19 18 17 16 17 17 17 17 17 16 15 16 17 15 15 14 14 15 15 15 15 13 11 10 9 9 9 9 8 7 7 8 9 9 9 10 11 15 17 16 14 14 13 11 9 11 11 12 13 13 13 12 11 11 12 12 12 12 12 12 12 12 12 11 11 11
19 20 20 21 20 20 20 19 20 21 19 19 19 19 20 21 20 20 20 18 17 16 16 16 17 16 16 16 16 15 15 16 14 13 13 13 15 15 14 14 13 12 10 9 9 10 11 9 7 7 8 9 9 8 8 11 14 15 14 13 12 10 8 9 11 11 12 13 13 13 12 12 12 12 11 11 11 11 11 11 11 11 11 10 10
19 19 20 21 21 20 20 20 20 20 19 18 18 18 19 19 17 17 17 17 16 16 15 15 16 15 15 15 16 16 14 15 15 13 13 14 14 14 13 13 13 12 11 11 10 11 12 9 8 7 7 10 10 9 8 10 12 14 13 12 10 7 7 9 10 11 12 12 12 12 13 14 12 11 11 10 10 10 10 10 10 10 10 10 10
18 19 20 20 19 19 20 20 20 20 19 17 17 17 19 18 17 17 17 16 16 15 15 15 15 15 16 15 15 17 15 14 15 14 14 14 13 13 13 13 12 12 11 11 11 11 11 10 9 7 7 10 11 10 8 8 10 11 11 9 8 7 7 8 9 10 10 11 11 10 10 13 12 11 10 9 9 9 9 9 9 9 10 10 10
17 17 18 19 18 18 20 19 20 21 18 17 17 17 18 17 16 16 17 16 16 15 14 14 15 15 15 14 13 15 16 15 15 15 14 14 13 12 13 12 11 11 11 11 11 11 11 11 10 9 9 10 11 11 9 8 7 5 5 7 8 8 7 8 9 10 11 11 10 9 9 10 11 11 10 9 8 8 8 8 8 9 10 9 10
15 15 16 18 17 17 19 18 20 22 18 17 17 16 17 16 15 16 16 15 15 15 14 14 16 15 15 14 13 15 17 15 16 16 14 14 13 13 12 12 10 10 10 10 10 12 11 10 11 11 10 9 10 11 11 10 7 5 5 8 8 8 8 8 10 11 10 9 9 9 9 11 10 10 9 9 9 8 8 8 8 9 10 10 9
15 14 15 17 16 16 17 16 20 22 19 18 16 16 16 13 14 15 14 14 13 12 13 16 17 14 14 14 14 16 17 16 16 16 15 14 14 14 12 11 11 11 10 10 10 12 11 10 11 11 10 9 9 11 11 11 10 9 8 8 8 8 9 9 10 11 10 9 9 8 10 12 10 9 10 10 9 8 8 8 8 8 9 10 9
14 14 16 17 17 18 18 17 20 20 18 16 14 15 15 11 13 14 14 13 12 11 11 14 14 12 12 15 16 17 17 16 16 15 15 16 14 12 12 11 11 11 10 10 11 12 11 11 11 11 10 9 10 11 12 13 13 10 9 8 8 8 9 10 10 11 11 10 9 9 10 12 10 9 9 9 10 8 8 8 8 9 9 9 9
14 15 16 16 19 20 18 18 19 19 16 14 13 14 13 11 12 15 15 13 12 13 11 10 12 12 12 15 18 17 17 17 16 15 14 14 12 10 10 10 10 10 9 9 10 11 11 11 11 10 10 9 10 12 13 13 11 10 9 8 8 8 9 10 11 12 12 11 10 10 11 12 11 9 8 8 9 9 8 8 8 9 9 10 10
15 15 15 15 18 19 17 17 17 16 15 14 14 12 11 11 12 14 15 13 13 13 12 13 14 11 12 16 18 17 19 17 15 14 12 12 11 10 9 9 9 9 9 9 9 10 10 10 10 10 10 10 10 9 10 10 9 9 9 9 8 8 9 10 11 12 13 11 10 11 12 13 11 9 8 7 8 8 8 7 7 9 10 10 10
13 13 11 9 12 15 15 16 16 15 15 15 14 10 10 11 12 14 13 12 14 12 11 14 15 13 15 18 18 17 18 16 14 12 11 12 11 10 9 8 8 8 8 8 8 9 9 9 9 10 11 11 11 10 9 9 9 8 9 9 8 8 9 9 10 14 14 11 11 11 11 12 11 10 8 7 7 8 8 8 9 10 9 9 8
12 10 7 5 9 12 11 13 16 16 15 13 11 10 9 11 13 16 13 12 14 12 11 14 16 17 19 19 19 18 17 15 14 12 11 11 11 9 9 8 8 7 7 7 7 8 8 8 9 11 11 10 11 11 10 10 8 8 9 9 9 8 8 8 9 13 14 12 12 11 10 10 10 10 9 8 9 9 9 9 9 9 8 7 7
12 10 9 8 12 11 10 11 14 14 12 12 12 12 9 10 12 14 11 11 13 12 12 15 17 18 19 19 18 16 15 14 12 12 11 9 9 9 8 8 8 7 7 8 8 8 8 9 10 10 10 9 9 10 10 10 8 8 9 8 9 8 8 8 9 12 13 13 13 12 11 10 11 10 9 9 9 8 8 8 7 6 6 5 5
13 12 11 10 12 10 12 15 13 11 10 13 13 11 9 8 11 12 11 11 11 12 13 17 17 16 18 19 17 14 14 15 13 13 11 9 9 9 8 8 8 8 8 8 8 8 9 9 9 8 8 8 8 9 11 8 7 10 9 8 9 8 8 8 9 13 13 13 13 12 11 11 11 10 9 9 7 7 6 6 6 5 5 5 5
12 12 13 11 12 12 15 17 14 9 8 12 14 11 10 10 11 11 12 11 11 12 13 17 19 18 19 18 17 16 17 17 17 14 11 10 9 9 9 8 8 9 8 8 8 8 8 8 9 9 8 9 8 9 11 9 8 11 8 7 9 7 8 8 9 13 12 11 13 12 12 12 11 9 9 8 6 6 6 5 5 5 5 5 5
11 10 14 13 13 14 14 12 12 10 8 12 14 10 10 11 11 10 10 10 10 10 12 17 20 19 18 18 17 17 17 16 17 15 12 11 10 9 9 9 9 9 8 8 9 9 8 9 9 9 9 9 7 10 12 11 10 11 8 6 8 6 7 7 8 12 11 9 10 10 11 11 10 8 7 7 6 6 6 5 5 5 5 5 5
11 10 14 13 14 15 14 10 11 12 12 13 12 8 10 11 11 9 9 8 8 9 11 13 15 18 19 18 16 15 15 14 15 15 14 12 11 11 10 10 10 9 8 8 9 9 9 9 7 8 10 6 5 10 11 11 10 9 7 6 7 6 7 7 7 11 10 8 8 8 9 9 9 8 6 7 8 6 6 6 6 5 5 5 5
11 9 14 14 14 14 14 13 11 12 12 13 12 10 12 13 11 10 8 7 8 8 9 9 11 15 18 17 15 14 14 13 14 14 14 14 13 11 10 10 11 10 9 9 9 9 9 8 7 8 10 7 7 10 11 10 8 7 7 7 7 6 6 6 6 9 9 8 7 7 8 8 8 9 8 8 8 7 7 7 6 6 5 5 5
12 10 13 15 13 13 13 12 12 11 12 13 14 12 14 15 12 10 9 8 7 6 7 9 9 13 15 16 15 14 13 12 13 13 13 12 11 10 9 9 10 10 10 9 9 10 9 8 8 8 9 10 10 11 10 9 9 9 8 7 7 7 7 8 6 7 8 8 7 8 9 9 8 9 9 8 9 8 7 7 7 7 6 5 5
12 10 12 14 14 14 12 11 12 13 14 14 16 15 13 15 12 10 10 8 7 6 7 9 9 12 14 14 14 14 12 12 13 12 12 12 11 9 8 8 10 10 10 10 8 9 9 7 9 10 8 10 12 13 11 9 9 10 8 8 9 10 10 9 7 7 8 8 8 8 10 9 8 9 8 6 6 8 6 5 7 7 6 6 6
12 10 12 15 15 15 13 11 12 12 14 16 17 16 12 13 12 11 11 9 7 7 8 10 11 13 14 13 14 13 11 11 11 11 11 13 13 10 7 8 11 11 10 10 9 10 9 8 9 12 12 11 13 13 11 10 10 12 12 12 11 11 9 9 8 7 7 8 8 8 9 10 9 8 7 5 5 7 6 4 5 6 5 7 9
10 10 11 16 16 15 14 12 12 12 12 15 17 16 12 13 13 11 11 9 8 7 9 11 12 13 14 15 15 13 11 10 10 10 11 12 11 9 8 10 11 11 10 8 8 9 8 9 9 12 14 13 12 11 10 11 13 13 12 11 10 9 8 9 8 6 7 8 8 7 7 8 9 8 8 7 6 6 6 5 5 5 6 7 10
11 11 11 15 17 16 14 12 13 13 12 14 16 16 12 11 11 10 10 8 8 8 9 12 13 12 13 15 14 12 11 10 10 10 11 12 11 9 10 12 11 9 9 7 7 7 8 9 9 10 12 11 12 13 12 11 10 10 12 10 8 8 8 8 8 7 8 7 6 6 6 7 8 8 8 8 7 6 6 6 6 5 6 9 10
13 13 14 15 17 18 15 13 14 15 14 13 14 14 12 11 9 8 8 8 9 9 9 12 14 14 14 15 15 13 12 12 11 9 11 13 12 11 12 12 11 9 8 8 8 9 8 8 8 9 11 10 10 14 15 12 11 12 12 8 5 6 6 6 6 8 9 7 6 6 6 8 8 8 8 8 7 7 7 7 7 7 7 8 10
13 14 16 16 16 17 16 14 14 14 15 14 13 13 13 12 11 9 8 10 11 10 9 11 14 15 14 14 13 14 14 13 12 10 9 12 12 12 13 12 11 9 9 9 9 9 9 8 8 7 11 10 8 12 15 15 17 13 8 6 6 6 5 5 7 8 8 7 6 6 6 7 9 8 8 8 8 7 8 8 8 8 8 8 10
15 15 16 15 15 16 16 15 12 13 15 14 13 13 13 13 11 9 8 10 11 12 13 14 14 16 16 15 13 13 13 11 11 11 10 11 12 11 11 11 9 7 8 9 8 9 8 8 9 7 8 11 10 10 11 15 19 10 3 5 5 3 4 7 9 7 7 7 7 6 6 7 8 7 7 8 9 8 9 9 8 8 8 8 9
17 16 16 15 14 16 16 14 12 13 16 14 14 15 14 12 11 11 11 9 9 12 16 18 18 18 17 17 14 12 12 11 10 12 12 13 14 12 11 11 9 7 8 8 8 9 8 7 10 9 7 10 13 13 10 12 15 7 1 3 0 1 6 10 7 4 5 7 7 7 6 7 6 7 8 8 9 9 9 9 9 8 8 9 10
17 17 17 15 14 15 16 14 13 13 15 15 15 16 15 14 12 11 12 10 9 11 13 16 17 16 15 14 13 12 12 12 11 11 11 12 13 12 11 10 8 8 8 7 8 8 8 7 8 8 8 10 13 14 13 12 12 8 5 3 2 2 8 9 6 5 6 5 6 7 7 6 6 6 7 8 8 9 8 9 9 9 9 9 10
17 17 17 16 15 16 16 15 13 13 14 15 16 17 16 15 14 12 11 9 9 11 12 13 12 12 12 11 11 11 12 11 11 11 11 10 10 10 10 9 8 9 8 8 8 7 7 7 6 8 9 11 11 13 13 12 11 8 6 4 2 2 7 8 6 7 7 5 5 7 7 7 6 6 7 8 9 8 8 8 8 9 9 10 10
16 18 17 16 17 17 16 15 14 13 14 16 17 17 16 15 14 12 11 12 12 12 12 11 10 10 10 10 10 10 10 10 10 10 10 10 9 10 10 10 9 9 8 8 8 7 6 6 7 7 7 10 12 11 11 12 12 9 6 5 3 2 4 6 5 3 4 6 6 6 8 8 6 6 6 7 8 8 7 7 8 9 9 10 10
16 17 17 17 18 17 16 16 16 15 16 17 17 17 16 14 14 13 12 13 14 13 12 11 10 10 10 10 9 9 9 9 9 9 9 9 9 9 10 10 9 9 8 8 7 7 6 5 7 6 6 9 10 9 10 12 12 10 7 6 5 4 4 4 2 1 1 5 7 7 10 9 7 7 6 7 8 8 8 7 8 9 9 10 10
17 17 17 18 19 18 18 16 16 16 16 18 18 17 17 16 15 15 13 13 14 14 12 11 11 10 9 9 8 8 7 8 8 8 8 8 9 8 8 9 9 8 8 7 7 7 7 6 6 7 8 8 8 8 10 10 12 13 11 8 7 9 8 4 3 5 4 4 5 8 10 10 10 9 8 8 8 9 8 7 8 8 9 10 10
Wind_Direction
135 132 141 159 156 156 158 159 165 165 166 167 168 167 165 163 160 159 157 157 155 153 152 153 151 148 144 140 140 137 133 130 129 124 121 120 119 118 117 118 118 119 118 116 111 108 102 98 98 97 94 94 93 90 90 83 78 81 79 81 87 90 91 92 90 86 82 81 82 81 80 78 74 76 76 74 74 74 73 71 73 76 74 72 74
137 136 140 156 158 157 159 162 165 166 167 167 169 167 165 163 160 159 158 158 156 153 151 151 150 148 146 143 141 138 135 132 129 125 124 123 122 120 120 121 121 121 119 118 115 110 102 98 97 97 96 97 97 96 93 85 82 83 82 83 89 93 93 93 93 89 82 81 82 82 82 79 76 75 73 72 71 71 73 71 71 73 72 70 72
137 139 137 152 159 158 161 163 165 166 166 166 168 166 165 162 160 159 159 159 155 151 149 149 151 152 152 147 143 140 137 134 131 129 129 127 124 123 125 127 125 124 124 121 118 111 103 99 96 95 96 96 98 101 95 88 84 89 91 88 94 96 95 96 95 94 87 81 79 80 82 79 79 77 75 74 72 71 70 67 68 69 70 69 67
139 140 138 152 158 160 163 163 165 165 165 164 165 164 163 162 160 160 160 158 153 150 149 152 153 154 154 150 146 142 138 137 136 134 133 130 129 128 130 130 128 129 127 122 117 114 108 101 96 94 94 94 97 101 100 95 88 96 101 94 99 100 100 102 104 105 101 90 77 77 82 80 77 74 75 74 72 72 67 61 61 61 62 65 66
138 143 141 149 154 161 164 163 164 162 163 162 162 162 161 160 160 160 159 156 153 152 152 155 154 155 154 151 148 143 141 142 141 138 135 136 136 133 133 132 131 133 129 124 120 115 111 105 100 94 91 91 93 96 101 102 98 104 107 102 103 105 106 108 113 117 119 111 93 85 87 82 74 67 69 69 67 71 67 60 57 57 54 56 61
138 145 142 145 146 157 164 163 163 161 161 160 159 159 159 160 160 159 158 155 155 155 155 157 157 156 153 153 150 144 144 145 148 145 140 141 140 136 136 136 135 135 132 127 122 117 113 109 102 96 91 87 88 92 97 102 107 113 112 111 111 109 108 106 110 118 139 138 120 101 87 78 74 66 62 60 58 62 64 58 58 58 54 54 56
141 145 144 144 144 157 163 162 160 158 158 157 158 158 160 160 159 159 157 157 157 157 158 159 158 154 151 154 152 146 145 144 150 150 144 143 143 140 139 139 138 137 136 132 126 121 116 111 105 100 92 87 85 88 98 102 110 120 118 119 119 114 100 90 84 77 100 152 148 105 85 77 76 70 63 61 59 60 55 50 60 64 60 60 59
143 147 146 144 149 161 161 159 158 156 156 156 158 158 160 160 160 160 158 159 159 159 160 160 158 152 149 151 150 146 146 144 147 149 146 146 150 146 141 142 141 140 139 136 130 124 116 112 108 102 93 90 87 85 97 105 110 118 123 128 129 119 95 83 78 66 66 91 96 83 87 87 81 76 70 67 63 65 59 51 62 69 64 62 61
147 148 147 145 153 162 159 157 156 156 157 157 158 159 160 159 161 161 161 161 161 161 160 160 157 151 148 147 147 147 149 147 145 149 151 152 153 146 143 147 144 141 140 139 133 126 119 114 112 107 97 92 88 84 89 101 111 113 118 127 133 122 98 86 77 64 66 79 75 68 84 91 81 79 77 73 67 70 73 62 64 66 64 63 62
147 148 147 146 153 160 157 156 156 156 157 157 158 158 159 159 160 162 162 161 161 160 158 159 157 152 150 148 148 148 150 147 143 146 152 152 149 149 154 154 147 143 142 138 132 127 123 119 115 109 100 95 91 86 81 91 105 109 113 117 123 118 104 90 73 64 72 79 74 71 80 83 76 77 79 79 73 73 76 69 69 67 67 67 65
143 145 146 145 153 158 156 156 157 156 158 158 158 158 158 159 160 161 160 158 159 159 158 157 155 154 154 151 149 150 152 150 150 147 146 149 150 159 163 154 145 141 140 135 129 128 124 119 117 112 106 104 99 90 83 84 97 110 114 115 117 115 107 88 67 73 84 84 85 81 78 78 77 79 81 80 76 77 77 74 74 69 71 74 67
139 140 142 145 155 158 157 158 158 159 159 158 157 157 158 160 161 160 159 158 158 157 156 154 152 154 155 153 150 151 152 151 156 153 147 151 156 163 160 149 145 145 145 138 131 131 127 124 125 126 117 111 106 97 93 86 96 114 116 114 111 100 84 67 65 84 86 85 87 85 82 80 81 81 80 78 78 78 76 76 76 72 74 74 68
142 139 141 144 154 158 160 162 161 162 161 160 159 159 160 161 161 161 160 159 157 155 154 155 156 157 155 154 153 152 154 152 156 157 153 156 161 163 161 153 153 156 153 140 130 131 132 135 137 132 117 111 109 104 104 94 99 117 116 108 98 83 67 61 72 88 85 87 86 85 84 81 82 82 80 78 78 77 76 77 77 73 70 70 70
143 138 141 143 150 159 163 164 163 164 164 164 163 164 164 162 162 162 161 160 158 158 159 162 163 163 160 158 157 155 158 159 157 158 157 158 159 161 163 161 159 155 146 135 132 137 141 144 137 120 107 111 116 114 112 103 103 115 115 107 94 84 71 66 81 90 88 90 85 85 86 84 86 85 83 81 80 81 81 80 77 73 71 72 73
140 137 142 142 147 158 163 164 164 164 165 166 166 167 166 164 164 163 163 163 162 162 163 164 164 164 163 161 158 157 161 164 162 161 161 161 159 157 158 158 157 149 140 136 139 147 149 141 128 114 113 116 117 118 115 107 105 114 117 109 93 84 73 72 89 91 90 90 86 87 87 88 91 88 85 85 85 84 84 81 78 76 74 73 72
142 143 144 143 146 154 160 163 162 161 163 165 167 168 167 167 165 165 166 166 166 164 165 167 165 163 164 164 162 162 164 167 170 170 167 166 164 163 162 158 153 148 143 140 137 145 147 129 115 113 121 120 117 117 114 107 104 110 115 104 86 80 76 84 96 91 91 93 90 89 90 91 93 92 88 87 88 86 85 83 80 78 76 75 73
150 151 147 147 148 152 156 161 161 158 159 163 167 169 170 169 167 167 168 169 168 166 168 169 167 167 169 169 168 169 167 165 170 175 175 173 169 169 171 169 164 154 145 143 138 142 142 125 111 114 128 129 122 117 111 104 99 100 107 100 85 81 81 86 93 90 90 92 90 90 91 92 92 92 88 88 89 88 87 85 83 81 80 80 78
156 156 153 152 151 154 156 161 161 156 159 161 165 168 169 169 167 168 170 170 169 170 171 171 171 170 171 171 172 173 170 165 162 166 172 176 176 177 179 182 183 167 150 148 147 145 141 132 119 120 137 138 127 118 110 102 96 95 100 98 89 86 86 86 90 90 89 88 88 90 92 94 94 91 90 90 90 90 90 88 87 83 83 85 81
160 159 156 157 156 157 158 162 162 159 160 160 164 167 168 169 169 169 172 173 171 172 171 172 174 174 175 173 172 171 171 168 162 160 162 169 175 182 187 190 192 174 156 153 151 149 146 136 122 122 142 144 134 122 112 105 100 97 96 92 88 84 81 85 91 90 87 87 89 91 95 100 99 94 92 92 91 91 91 91 91 87 86 85 80
162 161 159 162 161 160 161 164 164 163 162 161 165 168 170 171 170 172 172 173 173 174 173 173 174 173 173 171 169 169 171 168 165 164 159 160 165 172 180 184 188 176 163 159 155 155 151 137 128 132 144 150 144 128 118 111 104 99 95 89 82 72 68 80 88 88 87 88 91 95 102 105 99 98 98 95 95 95 92 92 92 90 89 88 86
164 166 164 165 165 165 165 166 167 166 163 163 165 168 173 171 170 173 173 174 174 175 174 174 173 171 170 169 169 170 170 164 163 165 160 160 160 161 165 167 172 173 167 165 167 162 153 144 142 140 145 157 151 137 128 117 108 100 96 91 80 72 82 94 92 90 90 92 94 94 97 100 99 99 101 98 97 97 94 94 95 94 91 92 91
166 170 171 170 170 170 168 168 169 168 166 164 164 168 174 171 168 172 174 176 175 174 174 173 172 171 173 173 173 172 165 158 162 163 160 163 160 157 159 161 162 168 169 167 174 167 154 152 154 149 150 159 152 146 140 124 113 104 99 92 85 90 100 100 98 93 90 94 97 92 87 91 98 99 100 100 98 98 97 98 98 99 96 93 91
169 173 174 175 175 174 171 170 169 169 167 164 165 168 171 170 169 171 172 175 175 174 172 174 175 172 173 173 175 175 164 158 164 161 157 159 156 155 159 162 162 168 172 169 171 168 160 157 161 164 160 161 159 156 151 139 123 103 94 90 96 116 111 103 104 97 93 97 100 99 88 85 92 98 103 101 98 95 95 97 96 96 94 92 90
173 174 174 178 177 175 174 173 171 169 168 167 169 168 168 170 168 169 172 173 175 175 173 178 180 174 169 164 165 170 165 157 160 159 152 151 148 151 157 156 162 172 172 166 168 172 167 162 166 172 166 164 166 163 159 160 156 128 107 110 120 126 119 110 106 103 100 101 103 103 98 86 84 91 99 101 100 97 96 96 93 94 94 91 87
174 175 175 179 177 175 175 173 172 173 171 171 172 168 168 169 168 169 167 169 174 175 177 185 184 172 166 168 163 163 164 154 156 158 149 150 149 150 155 152 159 170 165 164 172 176 173 173 175 175 176 174 172 172 169 167 171 173 151 130 131 131 121 111 106 111 108 107 114 108 104 98 88 87 92 96 100 99 95 92 90 91 92 90 86
172 173 179 181 177 175 174 173 175 177 173 172 173 169 170 166 164 167 163 166 175 177 184 192 185 166 162 172 165 160 164 158 158 161 151 154 157 155 158 154 159 166 165 170 174 177 179 184 186 187 194 192 187 184 175 177 184 172 153 139 136 132 125 116 112 118 116 117 118 108 106 107 101 96 93 89 93 100 95 91 91 85 83 83 82
172 178 185 181 176 176 175 176 177 177 174 176 175 169 176 171 160 168 168 165 172 177 182 189 186 173 166 165 161 161 165 162 160 161 157 161 165 163 160 157 161 165 171 176 174 180 187 191 195 199 202 200 200 189 177 193 197 171 146 144 139 134 129 126 125 122 119 123 120 110 114 115 110 105 98 86 82 91 95 93 95 89 84 79 75
178 188 189 179 176 177 177 178 176 179 179 177 177 173 180 177 162 174 181 171 170 179 179 187 189 178 164 157 159 161 161 161 161 163 163 166 168 164 160 159 161 164 172 177 176 180 191 198 197 201 204 205 203 186 183 198 191 156 143 144 138 137 132 129 132 127 118 123 123 114 117 117 113 108 101 89 77 82 92 91 91 89 89 85 82
185 191 189 177 173 174 177 180 179 181 180 177 180 179 178 177 171 177 182 174 172 180 183 194 195 173 154 158 161 158 161 165 163 165 172 171 164 158 159 159 158 162 172 179 180 177 190 199 195 200 207 210 205 189 187 190 174 153 149 145 142 139 133 134 138 131 121 124 126 117 116 114 110 105 100 95 85 87 99 101 98 94 93 91 86
191 188 183 165 163 175 182 183 184 181 181 180 177 182 176 172 186 185 173 169 174 176 182 192 193 179 164 165 168 163 164 169 167 170 177 169 157 156 157 156 159 164 171 177 177 178 188 194 193 202 206 205 199 192 184 172 170 164 154 150 147 143 137 141 141 132 127 127 128 121 118 116 112 114 113 104 93 95 105 108 105 101 99 93 83
194 181 161 151 167 182 190 191 194 183 175 173 176 196 175 147 178 187 167 161 169 167 174 180 178 177 170 166 170 167 162 168 177 176 171 164 156 156 155 156 161 162 169 173 177 181 186 191 197 207 211 203 185 182 180 171 172 163 158 156 148 149 144 139 135 134 136 132 128 123 120 122 123 129 126 109 99 98 100 100 99 98 98 92 81
194 167 145 175 182 183 191 198 206 195 168 165 187 201 175 141 167 179 161 153 160 161 166 168 167 168 168 167 166 166 160 161 171 169 163 162 157 154 153 156 159 163 171 172 180 184 187 197 205 211 214 203 170 164 176 174 172 162 156 153 149 153 147 141 134 132 135 132 129 125 120 122 124 126 120 110 108 103 98 98 100 102 102 92 77
199 167 148 173 180 176 184 189 207 214 168 168 196 196 180 166 164 171 171 160 157 165 162 161 165 164 168 168 161 162 165 161 160 159 162 164 156 155 157 158 159 164 171 172 177 184 191 195 200 203 204 197 167 157 168 156 152 166 159 151 154 153 150 150 136 127 129 130 133 131 125 121 118 117 112 108 110 105 104 106 105 104 96 76 58
204 169 145 158 174 179 185 184 196 211 166 177 203 192 180 183 175 173 175 167 162 169 158 153 162 164 167 166 160 163 168 168 164 156 160 164 158 158 159 161 167 170 174 177 177 184 189 184 187 188 191 196 172 157 167 146 140 164 163 156 155 151 152 150 135 129 127 127 134 135 134 131 121 116 113 111 112 107 110 109 101 91 75 58 47
210 169 135 145 178 187 189 183 183 189 172 190 205 188 174 182 186 174 165 168 166 169 159 151 157 161 163 161 161 167 169 171 167 160 162 166 161 162 166 169 178 180 178 179 183 188 183 180 189 179 183 202 166 151 166 154 153 164 156 150 149 150 155 149 133 126 125 128 131 133 141 142 125 116 116 112 115 114 107 99 92 83 75 69 56
212 175 137 151 182 186 192 189 178 176 167 182 193 186 177 175 181 172 164 168 162 167 161 152 155 157 162 161 161 170 170 168 169 167 166 168 167 167 176 183 187 189 186 186 192 194 181 182 191 167 177 202 138 145 164 156 154 156 148 146 145 155 155 149 135 121 124 132 129 133 141 140 122 119 128 121 118 116 107 98 87 80 77 76 72
211 181 143 153 175 181 192 192 180 170 163 172 174 179 181 176 181 175 170 175 171 175 163 159 161 158 163 166 167 171 170 167 169 173 170 173 176 173 182 191 192 197 197 191 194 192 181 184 186 168 187 199 141 146 162 157 151 149 152 151 146 152 137 124 128 127 133 134 134 143 135 130 128 124 126 126 125 116 104 99 85 76 76 73 73
209 187 148 148 169 183 193 189 179 170 163 173 182 186 178 174 181 177 178 187 185 185 167 169 175 168 170 173 171 169 171 172 169 173 174 176 180 182 188 192 194 202 198 192 198 192 184 194 189 175 198 198 162 149 156 164 167 163 158 150 142 142 129 116 124 145 147 135 135 139 126 128 134 121 112 119 130 122 105 101 87 72 72 73 63
204 191 156 146 164 182 190 179 174 173 162 170 192 196 178 171 175 174 183 187 182 186 175 172 175 177 177 175 173 169 175 177 170 173 177 178 183 189 192 192 198 203 198 195 197 192 186 197 186 170 189 197 173 155 157 173 173 155 139 139 138 134 138 136 141 158 146 131 139 144 133 127 120 109 105 112 121 113 106 103 96 85 69 62 58
199 189 163 152 160 178 191 184 180 183 165 165 187 197 185 177 177 176 182 184 185 188 186 183 179 179 175 172 175 174 179 177 171 179 186 186 187 190 196 205 208 202 201 200 193 192 188 187 178 163 166 179 177 166 165 165 142 121 120 132 133 130 139 137 141 152 137 134 149 150 139 130 123 119 122 125 109 100 105 102 100 112 96 66 65
190 186 169 158 156 167 186 190 190 191 174 166 179 191 189 182 184 187 184 184 187 183 191 192 184 178 172 173 176 173 178 174 171 182 186 188 189 195 211 220 219 204 198 204 196 195 191 188 182 166 162 164 171 176 166 149 131 117 119 124 120 122 134 134 136 149 150 149 148 139 134 133 130 129 130 132 129 114 114 111 100 122 123 90 75
191 190 179 163 154 161 176 185 190 189 180 172 173 180 185 183 188 194 190 186 184 177 184 187 181 177 172 176 178 170 177 179 178 183 176 180 191 203 215 222 228 213 195 197 195 197 197 192 184 170 168 163 167 172 158 142 142 136 130 126 115 115 127 138 144 160 168 161 146 142 140 135 128 126 127 125 126 116 108 112 103 99 101 95 88
194 189 178 165 161 166 172 182 192 186 180 179 173 169 173 181 184 189 188 181 177 172 178 184 178 176 177 179 178 174 180 185 187 186 175 182 195 201 207 218 227 216 200 196 192 199 202 194 191 176 163 159 161 165 161 153 148 141 136 137 136 132 134 143 154 161 165 163 154 153 143 133 127 126 128 119 115 110 103 104 97 90 87 91 93
187 183 175 170 170 171 173 183 192 179 174 184 179 162 162 175 181 182 182 180 177 165 170 186 175 170 177 182 183 182 182 187 190 185 181 189 198 200 201 213 222 214 206 204 198 202 203 191 198 189 158 163 172 161 164 165 155 145 139 139 145 156 151 144 153 155 160 162 149 140 133 128 125 124 125 117 113 109 104 101 95 94 91 91 95
183 177 174 176 174 170 174 184 187 168 162 175 179 165 161 169 173 172 174 180 179 163 166 182 176 172 180 183 185 184 180 186 188 185 194 197 198 204 207 209 212 213 215 213 203 204 210 192 192 199 164 164 175 161 162 167 162 157 135 135 146 172 160 144 144 148 160 153 129 123 119 114 118 122 119 115 114 110 106 106 102 100 97 94 96
181 174 171 174 173 170 174 179 180 165 155 164 174 171 170 173 170 167 168 172 171 165 173 181 179 181 186 180 174 175 177 182 183 186 194 195 194 199 204 204 200 208 220 219 210 204 211 203 187 194 184 164 166 165 168 171 169 173 164 149 13 47 150 151 145 140 146 132 120 123 117 115 124 123 117 113 112 111 109 107 104 102 100 96 94
177 171 167 167 171 171 173 175 176 169 160 163 171 173 175 179 181 177 173 171 167 176 185 183 179 178 176 170 165 170 177 181 183 186 188 187 190 193 197 200 195 202 215 224 226 207 204 215 187 179 185 171 168 171 171 172 172 178 181 168 10 70 148 156 153 146 141 121 120 128 120 117 118 110 115 115 111 109 110 112 112 110 108 105 101
172 168 163 163 170 170 173 174 173 173 168 166 173 177 176 178 183 181 177 177 175 186 192 183 178 169 163 165 167 171 176 179 183 186 187 186 188 190 191 195 194 200 208 216 230 218 201 208 184 180 183 171 180 181 170 171 168 166 174 161 82 130 160 163 157 153 150 137 134 140 131 114 97 92 101 110 116 116 117 122 121 117 112 109 106
169 167 164 162 164 167 173 176 177 177 173 172 177 178 176 175 176 174 177 186 191 197 192 178 173 167 164 169 169 172 175 178 181 182 185 184 185 190 190 193 196 198 202 208 220 221 204 182 168 190 184 162 182 189 175 177 167 154 159 148 119 131 175 181 168 154 150 149 153 154 144 133 119 112 107 113 122 121 119 121 119 116 111 108 107
169 167 166 161 159 162 170 179 183 178 171 177 182 176 173 173 172 174 178 187 196 196 186 173 170 168 166 169 169 171 171 170 175 178 179 178 182 190 192 194 194 196 202 208 212 211 211 189 165 189 196 167 174 176 174 178 163 152 160 160 163 160 173 201 177 117 187 175 166 156 153 152 141 134 135 137 137 133 129 127 122 119 114 112 109
171 168 168 163 161 162 167 179 184 174 169 179 185 178 173 171 174 178 174 183 195 188 176 171 167 163 163 165 164 164 163 160 163 170 173 173 177 185 192 195 193 196 202 205 208 204 212 208 172 185 203 186 169 164 170 170 161 165 166 163 177 172 171 187 153 146 195 219 181 156 160 159 144 143 152 152 150 146 141 137 130 122 117 116 111